GXFCD EGPK-EGPE

Flight info

Callsign GXFCD
Flight time 0h 44m
Altitude 3000
Route EGPK/20 EGPE/23
Aircraft C208/L-SDFGRZ/C

Departure

Time 2026-05-07 16:26
Airport Glasgow Prestwick Airport (EGPK)

Arrival

Time 2026-05-07 17:11
Airport Inverness Airport (EGPE)
Time Latitude Longitude Altitude Speed Heading
2026-05-07 16:08 55.51233 -4.58478 47 ft 0 kts 152°
2026-05-07 16:12 55.51232 -4.58477 47 ft 4 kts 152°
2026-05-07 16:12 55.51215 -4.58461 47 ft 0 kts 152°
2026-05-07 16:21 55.51215 -4.58460 47 ft 1 kts 152°
2026-05-07 16:21 55.51185 -4.58436 47 ft 7 kts 157°
2026-05-07 16:21 55.51139 -4.58467 47 ft 9 kts 241°
2026-05-07 16:21 55.51112 -4.58556 47 ft 7 kts 240°
2026-05-07 16:22 55.51078 -4.58630 46 ft 8 kts 222°
2026-05-07 16:22 55.51044 -4.58720 46 ft 11 kts 245°
2026-05-07 16:22 55.51006 -4.58865 45 ft 17 kts 245°
2026-05-07 16:22 55.50950 -4.59076 44 ft 20 kts 244°
2026-05-07 16:23 55.50902 -4.59242 46 ft 10 kts 213°
2026-05-07 16:23 55.50849 -4.59184 47 ft 14 kts 120°
2026-05-07 16:23 55.50769 -4.58960 46 ft 29 kts 122°
2026-05-07 16:23 55.50654 -4.58631 49 ft 31 kts 122°
2026-05-07 16:24 55.50553 -4.58313 53 ft 28 kts 121°
2026-05-07 16:24 55.50451 -4.58027 54 ft 27 kts 122°
2026-05-07 16:24 55.50386 -4.57842 53 ft 27 kts 119°
2026-05-07 16:24 55.50333 -4.57637 52 ft 11 kts 121°
2026-05-07 16:25 55.50271 -4.57629 53 ft 0 kts 201°
2026-05-07 16:25 55.50236 -4.57654 53 ft 38 kts 204°
2026-05-07 16:25 55.49748 -4.57998 197 ft 96 kts 204°
2026-05-07 16:26 55.49064 -4.58542 439 ft 117 kts 206°
2026-05-07 16:26 55.48352 -4.59177 964 ft 114 kts 207°
2026-05-07 16:26 55.47797 -4.60277 1266 ft 132 kts 240°
2026-05-07 16:26 55.47694 -4.61927 1642 ft 142 kts 269°
2026-05-07 16:27 55.48080 -4.63515 2101 ft 151 kts 306°
2026-05-07 16:27 55.48845 -4.64821 2320 ft 161 kts 308°
2026-05-07 16:27 55.49687 -4.66277 2280 ft 175 kts 308°
2026-05-07 16:27 55.50757 -4.67434 2232 ft 192 kts 343°
2026-05-07 16:28 55.52113 -4.67401 2207 ft 198 kts
2026-05-07 16:28 55.53437 -4.67052 2202 ft 186 kts
2026-05-07 16:28 55.54715 -4.66689 2198 ft 187 kts
2026-05-07 16:28 55.56004 -4.66318 2199 ft 189 kts
2026-05-07 16:29 55.57317 -4.65942 2204 ft 193 kts
2026-05-07 16:29 55.58634 -4.65560 2202 ft 195 kts
2026-05-07 16:29 55.59963 -4.65172 2196 ft 192 kts
2026-05-07 16:29 55.61278 -4.64792 2198 ft 192 kts
2026-05-07 16:30 55.62597 -4.64407 2193 ft 191 kts
2026-05-07 16:30 55.63904 -4.64006 2196 ft 190 kts
2026-05-07 16:30 55.65205 -4.63607 2197 ft 191 kts
2026-05-07 16:30 55.66521 -4.63213 2197 ft 192 kts
2026-05-07 16:31 55.67832 -4.62833 2198 ft 190 kts
2026-05-07 16:31 55.69141 -4.62454 2198 ft 191 kts
2026-05-07 16:31 55.70468 -4.62063 2202 ft 195 kts
2026-05-07 16:31 55.71817 -4.61634 2202 ft 198 kts
2026-05-07 16:32 55.73174 -4.61192 2206 ft 199 kts
2026-05-07 16:32 55.74520 -4.60746 2200 ft 200 kts
2026-05-07 16:32 55.75890 -4.60296 2205 ft 202 kts
2026-05-07 16:32 55.77268 -4.59838 2193 ft 200 kts
2026-05-07 16:33 55.78628 -4.59401 2198 ft 198 kts
2026-05-07 16:33 55.79978 -4.58963 2202 ft 197 kts
2026-05-07 16:33 55.81318 -4.58489 2198 ft 196 kts
2026-05-07 16:33 55.82668 -4.58123 2201 ft 196 kts
2026-05-07 16:34 55.84015 -4.57781 2201 ft 196 kts
2026-05-07 16:34 55.85361 -4.57454 2196 ft 194 kts
2026-05-07 16:34 55.86700 -4.57132 2200 ft 194 kts
2026-05-07 16:34 55.88044 -4.56796 2201 ft 195 kts
2026-05-07 16:35 55.89396 -4.56453 2202 ft 197 kts
2026-05-07 16:35 55.90741 -4.56120 2204 ft 198 kts
2026-05-07 16:35 55.92109 -4.55807 2205 ft 198 kts
2026-05-07 16:35 55.93479 -4.55493 2202 ft 198 kts
2026-05-07 16:36 55.94850 -4.55192 2205 ft 199 kts
2026-05-07 16:36 55.96224 -4.54868 2207 ft 200 kts
2026-05-07 16:36 55.97611 -4.54532 2204 ft 201 kts
2026-05-07 16:36 55.98993 -4.54217 2204 ft 199 kts
2026-05-07 16:37 56.00369 -4.53914 2192 ft 199 kts
2026-05-07 16:37 56.01739 -4.53600 2182 ft 199 kts
2026-05-07 16:37 56.03111 -4.53265 2185 ft 199 kts
2026-05-07 16:37 56.04454 -4.52937 2184 ft 196 kts
2026-05-07 16:38 56.05803 -4.52610 2189 ft 195 kts
2026-05-07 16:38 56.07142 -4.52278 2189 ft 195 kts
2026-05-07 16:38 56.08484 -4.51951 2186 ft 194 kts
2026-05-07 16:38 56.09821 -4.51620 2196 ft 195 kts
2026-05-07 16:39 56.11160 -4.51290 2194 ft 195 kts
2026-05-07 16:39 56.12514 -4.50958 2189 ft 197 kts
2026-05-07 16:39 56.13866 -4.50642 2176 ft 193 kts
2026-05-07 16:39 56.15170 -4.50310 2192 ft 189 kts
2026-05-07 16:40 56.16484 -4.49972 2178 ft 191 kts
2026-05-07 16:40 56.17793 -4.49834 2299 ft 184 kts 352°
2026-05-07 16:40 56.19051 -4.50088 2382 ft 183 kts 353°
2026-05-07 16:40 56.20346 -4.50200 2504 ft 189 kts 349°
2026-05-07 16:41 56.21702 -4.50477 2500 ft 192 kts 350°
2026-05-07 16:41 56.23035 -4.50527 2157 ft 190 kts
2026-05-07 16:41 56.24250 -4.49749 1799 ft 183 kts 31°
2026-05-07 16:41 56.25314 -4.48656 1884 ft 168 kts 30°
2026-05-07 16:42 56.26355 -4.47606 2096 ft 173 kts 32°
2026-05-07 16:42 56.27383 -4.46582 2444 ft 176 kts 23°
2026-05-07 16:42 56.28518 -4.45527 2565 ft 188 kts 34°
2026-05-07 16:42 56.29623 -4.44141 2400 ft 205 kts 35°
2026-05-07 16:43 56.30715 -4.42573 2034 ft 198 kts 45°
2026-05-07 16:43 56.31692 -4.40933 2022 ft 189 kts 42°
2026-05-07 16:43 56.32776 -4.39508 1863 ft 195 kts 34°
2026-05-07 16:43 56.33998 -4.38416 1632 ft 198 kts 18°
2026-05-07 16:44 56.35308 -4.38092 1661 ft 187 kts
2026-05-07 16:44 56.36587 -4.37888 1683 ft 188 kts
2026-05-07 16:44 56.37818 -4.37619 2295 ft 162 kts
2026-05-07 16:44 56.38944 -4.37375 2644 ft 174 kts
2026-05-07 16:45 56.40214 -4.37084 2608 ft 191 kts
2026-05-07 16:45 56.41560 -4.36770 2646 ft 198 kts
2026-05-07 16:45 56.42920 -4.36429 2621 ft 194 kts
2026-05-07 16:45 56.44260 -4.36120 2631 ft 193 kts
2026-05-07 16:46 56.45601 -4.35769 2635 ft 197 kts
2026-05-07 16:46 56.46970 -4.35416 2623 ft 199 kts
2026-05-07 16:46 56.48318 -4.35047 2632 ft 194 kts
2026-05-07 16:46 56.49672 -4.34689 2639 ft 200 kts
2026-05-07 16:47 56.51043 -4.34348 2968 ft 190 kts
2026-05-07 16:47 56.52366 -4.34394 2696 ft 185 kts 345°
2026-05-07 16:47 56.53671 -4.34370 2282 ft 190 kts
2026-05-07 16:47 56.54910 -4.33676 2006 ft 183 kts 17°
2026-05-07 16:48 56.56121 -4.33050 1962 ft 185 kts 16°
2026-05-07 16:48 56.57393 -4.32360 1924 ft 188 kts 17°
2026-05-07 16:48 56.58596 -4.31856 2220 ft 173 kts
2026-05-07 16:48 56.59822 -4.31458 2137 ft 185 kts 11°
2026-05-07 16:49 56.61065 -4.30819 2159 ft 187 kts 14°
2026-05-07 16:49 56.62346 -4.30315 2250 ft 187 kts 11°
2026-05-07 16:49 56.63644 -4.29874 2241 ft 190 kts
2026-05-07 16:49 56.64894 -4.29378 2379 ft 180 kts 10°
2026-05-07 16:50 56.66119 -4.28862 2445 ft 185 kts 10°
2026-05-07 16:50 56.67385 -4.28329 2451 ft 190 kts 11°
2026-05-07 16:50 56.68709 -4.27776 2453 ft 198 kts 10°
2026-05-07 16:50 56.70073 -4.27221 2457 ft 204 kts 10°
2026-05-07 16:51 56.71467 -4.26654 2443 ft 205 kts 10°
2026-05-07 16:51 56.72848 -4.26085 2450 ft 201 kts 10°
2026-05-07 16:51 56.74202 -4.25517 2449 ft 198 kts 11°
2026-05-07 16:51 56.75541 -4.24958 2501 ft 196 kts 11°
2026-05-07 16:52 56.76831 -4.24402 2628 ft 190 kts 11°
2026-05-07 16:52 56.78138 -4.23854 2641 ft 197 kts 10°
2026-05-07 16:52 56.79479 -4.23289 2668 ft 196 kts 11°
2026-05-07 16:52 56.80792 -4.22838 2717 ft 193 kts
2026-05-07 16:53 56.82143 -4.22780 2606 ft 197 kts 358°
2026-05-07 16:53 56.83486 -4.22599 2860 ft 184 kts 359°
2026-05-07 16:53 56.84759 -4.22327 3056 ft 189 kts
2026-05-07 16:53 56.86077 -4.21874 3182 ft 195 kts 11°
2026-05-07 16:54 56.87386 -4.21186 3317 ft 194 kts
2026-05-07 16:54 56.88734 -4.20924 3268 ft 197 kts
2026-05-07 16:54 56.90109 -4.20631 3218 ft 198 kts
2026-05-07 16:54 56.91465 -4.20211 3132 ft 203 kts
2026-05-07 16:55 56.92851 -4.19684 2967 ft 202 kts
2026-05-07 16:55 56.94206 -4.19057 2912 ft 200 kts 14°
2026-05-07 16:55 56.95512 -4.18330 2833 ft 198 kts 18°
2026-05-07 16:55 56.96839 -4.17562 2764 ft 200 kts 11°
2026-05-07 16:56 56.98216 -4.16993 2566 ft 205 kts
2026-05-07 16:56 56.99578 -4.16427 2564 ft 198 kts
2026-05-07 16:56 57.02250 -4.15116 2355 ft 199 kts 15°
2026-05-07 16:57 57.03585 -4.14488 2224 ft 200 kts 11°
2026-05-07 16:57 57.04929 -4.13862 2135 ft 195 kts 15°
2026-05-07 16:57 57.06195 -4.13163 2181 ft 187 kts 16°
2026-05-07 16:57 57.07452 -4.12326 2033 ft 191 kts 23°
2026-05-07 16:58 57.08637 -4.11389 2197 ft 183 kts 22°
2026-05-07 16:58 57.09806 -4.10544 2571 ft 181 kts 18°
2026-05-07 16:58 57.11013 -4.09768 2712 ft 188 kts 21°
2026-05-07 16:58 57.12195 -4.08967 3012 ft 168 kts 15°
2026-05-07 16:59 57.13376 -4.08378 3246 ft 185 kts 13°
2026-05-07 16:59 57.14652 -4.07775 3229 ft 192 kts 14°
2026-05-07 16:59 57.15924 -4.07119 3351 ft 191 kts 17°
2026-05-07 16:59 57.17218 -4.06372 3435 ft 197 kts 15°
2026-05-07 17:00 57.18509 -4.05549 3420 ft 198 kts 21°
2026-05-07 17:00 57.19831 -4.04496 3254 ft 209 kts 24°
2026-05-07 17:00 57.21093 -4.03366 3432 ft 201 kts 27°
2026-05-07 17:00 57.22382 -4.02316 3389 ft 201 kts 20°
2026-05-07 17:01 57.23667 -4.01369 3366 ft 199 kts 22°
2026-05-07 17:01 57.24984 -4.00529 3196 ft 202 kts
2026-05-07 17:01 57.26367 -4.00084 3148 ft 199 kts
2026-05-07 17:01 57.27715 -3.99556 3181 ft 197 kts
2026-05-07 17:02 57.29061 -3.99188 3124 ft 196 kts
2026-05-07 17:02 57.30435 -3.98981 3049 ft 199 kts
2026-05-07 17:02 57.31795 -3.98704 3097 ft 199 kts
2026-05-07 17:02 57.33152 -3.98226 3137 ft 198 kts
2026-05-07 17:03 57.34506 -3.98117 3074 ft 194 kts 353°
2026-05-07 17:03 57.35860 -3.98146 3068 ft 194 kts 356°
2026-05-07 17:03 57.37198 -3.98090 3072 ft 193 kts 358°
2026-05-07 17:03 57.38538 -3.98259 2986 ft 193 kts 345°
2026-05-07 17:04 57.39872 -3.98652 2891 ft 194 kts 347°
2026-05-07 17:04 57.41221 -3.98806 2933 ft 195 kts 356°
2026-05-07 17:04 57.42605 -3.98766 2686 ft 202 kts 346°
2026-05-07 17:04 57.43930 -3.99183 2455 ft 188 kts 346°
2026-05-07 17:05 57.45221 -3.99445 2176 ft 181 kts 350°
2026-05-07 17:05 57.46448 -3.99517 1965 ft 173 kts 351°
2026-05-07 17:05 57.47635 -3.99649 1755 ft 168 kts 351°
2026-05-07 17:05 57.48723 -4.00100 1626 ft 157 kts 346°
2026-05-07 17:06 57.49829 -4.00396 1397 ft 159 kts 351°
2026-05-07 17:06 57.50937 -4.00344 1268 ft 165 kts 359°
2026-05-07 17:06 57.52037 -4.00138 1402 ft 160 kts 12°
2026-05-07 17:06 57.53021 -3.99044 1364 ft 165 kts 38°
2026-05-07 17:07 57.53971 -3.97817 1393 ft 167 kts 39°
2026-05-07 17:07 57.54874 -3.96397 1345 ft 173 kts 44°
2026-05-07 17:07 57.55701 -3.94791 1439 ft 169 kts 51°
2026-05-07 17:07 57.56471 -3.93158 1521 ft 165 kts 43°
2026-05-07 17:08 57.57468 -3.92791 1686 ft 144 kts 334°
2026-05-07 17:08 57.58063 -3.94089 1576 ft 130 kts 272°
2026-05-07 17:08 57.57950 -3.95807 1207 ft 144 kts 251°
2026-05-07 17:08 57.57582 -3.97397 980 ft 133 kts 232°
2026-05-07 17:09 57.57060 -3.98718 878 ft 109 kts 229°
2026-05-07 17:09 57.56568 -3.99799 587 ft 107 kts 225°
2026-05-07 17:09 57.56131 -4.00715 368 ft 83 kts 223°
2026-05-07 17:09 57.55788 -4.01551 306 ft 80 kts 224°
2026-05-07 17:10 57.55396 -4.02279 259 ft 80 kts 225°
2026-05-07 17:10 57.55019 -4.03082 177 ft 80 kts 226°
2026-05-07 17:10 57.54665 -4.03852 53 ft 77 kts 227°
2026-05-07 17:10 57.54343 -4.04548 55 ft 67 kts 227°
2026-05-07 17:11 57.54074 -4.05122 32 ft 39 kts 229°
2026-05-07 17:11 57.53958 -4.05389 34 ft 22 kts 231°
2026-05-07 17:11 57.53877 -4.05569 34 ft 16 kts 228°
2026-05-07 17:11 57.53800 -4.05732 33 ft 21 kts 228°
2026-05-07 17:12 57.53719 -4.05918 31 ft 14 kts 252°
2026-05-07 17:12 57.53745 -4.06068 32 ft 9 kts 303°
2026-05-07 17:12 57.53759 -4.06108 32 ft 0 kts 303°
2026-05-07 17:12 57.53760 -4.06112 32 ft 3 kts 303°
2026-05-07 17:13 57.53795 -4.06179 32 ft 12 kts 343°
2026-05-07 17:13 57.53886 -4.06172 33 ft 14 kts
2026-05-07 17:13 57.53918 -4.06173 33 ft 4 kts 342°
2026-05-07 17:13 57.53950 -4.06222 33 ft 0 kts 314°
2026-05-07 17:14 57.53956 -4.06233 33 ft 2 kts 310°
2026-05-07 17:14 57.53961 -4.06249 33 ft 2 kts 290°
2026-05-07 17:14 57.53962 -4.06257 33 ft 1 kts 281°
2026-05-07 17:14 57.53962 -4.06261 33 ft 0 kts 275°